Tracking 31027 objects as of 19-Jul-2025
HD Live streaming from Space Station
objects crossing your sky now

OPS 7218 (TRANSIT 16)

Track OPS 7218 (TRANSIT 16) now!
10-day predictions
OPS 7218 (TRANSIT 16) is classified as:


NORAD ID: 2807
Int'l Code: 1967-048A
Perigee: 1,061.7 km
Apogee: 1,092.1 km
Inclination: 89.7 °
Period: 106.6 minutes
Semi major axis: 7447 km
RCS: 1.5463 m2 (large)
Launch date: May 18, 1967
Source: United States (US)
Launch site: AIR FORCE WESTERN TEST RANGE (AFWTR)
Your satellite tracking list
SL-14 DEB
Track 1 satellite(s)




NASA's NSSDC Master Catalog

Two Line Element Set (TLE):
1  2807U 67048A   25199.69222079  .00000112  00000-0  15753-3 0  9993
2  2807  89.6758 358.8071 0020415 175.8247 195.0902 13.50683247863406
Source of the keplerian elements: AFSPC